Weather in Troyes

France     48˚17′55″N   4˚04′13″E
temp.,
°C
wind,
m/s
gust,
m/s
humid.,
%
clouds,
%
prec.,
mm/h
press.,
hPa
HPBL,
m
2 december, wed
wed201:00+5˚nnw5109597 3.1 1018498
04:00+5˚ne4796100 0.5 1017348
07:00+5˚ne3693100 0.5 1018216
10:00+5˚nne368868 0.0 1018297
13:00+6˚nne237852 0.0 1016587
16:00+6˚nnw238077 0.0 1015333
19:00+5˚w238589 0.0 1015104
22:00+5˚w2392100 0.0 101497
3 december, thu
thu301:00+5˚sw2492100 0.1 1013192
04:00+4˚ssw3796100 0.1 1010199
07:00+4˚ssw61091100 0.4 1007509
10:00+4˚ssw61090100 0.0 1005440
13:00+6˚ssw71386100 0.1 1002723
16:00+6˚ssw71386100 0.1 997944
19:00+6˚s91687100 1.6 992892
22:00+7˚ssw101789100 2.3 9881046
4 december, fri
fri401:00+7˚ssw111886100 4.6 9851087
04:00+7˚ssw132282100 1.0 9821395
07:00+6˚ssw81582100 1.3 9831163
10:00+5˚ssw7128389 0.1 985986
13:00+6˚sw697395 0.1 9871077
16:00+6˚ssw377770 0.2 987378
19:00+3˚s348685 0.3 98998
22:00+2˚wsw119767 0.8 99098
5 december, sat
sat501:00+1˚ssw239682 0.8 99267
04:00s129488 0.0 99221
07:00s229494 0.0 99442
10:00+2˚se238866 0.0 995142
13:00+5˚sse357434 0.0 995738
16:00+4˚se23790 0.0 99570
19:00+1˚se36890 0.0 995134
22:00+1˚se410900 0.0 994263
6 december, sun
sun601:00+2˚se6138633 0.0 993453
04:00+2˚sse51191100 0.8 992547
07:00+2˚sse51189100 0.8 992479
10:00+3˚s6108698 0.1 993780
13:00+4˚ssw587998 0.1 9931052
16:00+4˚ssw377995 0.0 994656
19:00+1˚ssw358698 0.0 995106
22:00+1˚ssw359051 0.0 997132